TimeCDT,TemperatureF,Dew PointF,Humidity,Sea Level PressureIn,VisibilityMPH,Wind Direction,Wind SpeedMPH,Gust SpeedMPH,PrecipitationIn,Events,Conditions,WindDirDegrees,DateUTC
12:15 AM,37.4,24.8,60,30.06,10.0,East,4.6,-,N/A,,Clear,90,2012-10-31 05:15:00
12:35 AM,35.6,24.8,65,30.05,10.0,East,6.9,-,N/A,,Clear,80,2012-10-31 05:35:00
12:55 AM,35.6,24.8,65,30.05,10.0,East,5.8,-,N/A,,Clear,90,2012-10-31 05:55:00
1:15 AM,35.6,24.8,65,30.04,10.0,ESE,3.5,-,N/A,,Clear,110,2012-10-31 06:15:00
1:35 AM,35.6,24.8,65,30.04,10.0,ESE,3.5,-,N/A,,Clear,110,2012-10-31 06:35:00
1:55 AM,35.6,24.8,65,30.04,10.0,Calm,Calm,-,N/A,,Clear,0,2012-10-31 06:55:00
2:15 AM,35.6,24.8,65,30.05,10.0,Calm,Calm,-,N/A,,Clear,0,2012-10-31 07:15:00
2:35 AM,35.6,24.8,65,30.05,10.0,Calm,Calm,-,N/A,,Clear,0,2012-10-31 07:35:00
2:55 AM,33.8,24.8,70,30.05,10.0,East,3.5,-,N/A,,Clear,90,2012-10-31 07:55:00
3:15 AM,33.8,24.8,70,30.06,10.0,East,4.6,-,N/A,,Clear,80,2012-10-31 08:15:00
3:35 AM,33.8,24.8,70,30.05,10.0,East,5.8,-,N/A,,Clear,80,2012-10-31 08:35:00
3:55 AM,32.0,24.8,75,30.05,10.0,East,3.5,-,N/A,,Clear,100,2012-10-31 08:55:00
4:15 AM,32.0,24.8,75,30.05,10.0,ESE,5.8,-,N/A,,Clear,110,2012-10-31 09:15:00
4:35 AM,33.8,24.8,70,30.04,10.0,East,6.9,-,N/A,,Clear,100,2012-10-31 09:35:00
4:55 AM,33.8,26.6,75,30.03,10.0,East,5.8,-,N/A,,Clear,90,2012-10-31 09:55:00
5:15 AM,32.0,26.6,80,30.03,10.0,East,5.8,-,N/A,,Clear,90,2012-10-31 10:15:00
5:35 AM,32.0,24.8,75,30.03,10.0,East,6.9,-,N/A,,Clear,80,2012-10-31 10:35:00
5:55 AM,30.2,24.8,80,30.03,10.0,East,5.8,-,N/A,,Clear,90,2012-10-31 10:55:00
6:15 AM,32.0,24.8,75,30.03,10.0,East,6.9,-,N/A,,Clear,90,2012-10-31 11:15:00
6:35 AM,30.2,24.8,80,30.04,10.0,East,5.8,-,N/A,,Clear,90,2012-10-31 11:35:00
6:55 AM,30.2,24.8,80,30.03,10.0,East,6.9,-,N/A,,Clear,80,2012-10-31 11:55:00
7:15 AM,30.2,24.8,80,30.03,10.0,East,5.8,-,N/A,,Clear,90,2012-10-31 12:15:00
7:35 AM,30.2,24.8,80,30.03,10.0,East,3.5,-,N/A,,Clear,100,2012-10-31 12:35:00
7:55 AM,30.2,24.8,80,30.03,10.0,East,5.8,-,N/A,,Clear,80,2012-10-31 12:55:00
8:15 AM,30.2,24.8,80,30.03,10.0,East,4.6,-,N/A,,Clear,100,2012-10-31 13:15:00
8:35 AM,30.2,26.6,86,30.03,10.0,ESE,3.5,-,N/A,,Clear,120,2012-10-31 13:35:00
8:55 AM,32.0,26.6,80,30.04,10.0,East,4.6,-,N/A,,Clear,90,2012-10-31 13:55:00
9:15 AM,33.8,26.6,75,30.03,10.0,East,3.5,-,N/A,,Clear,80,2012-10-31 14:15:00
9:35 AM,33.8,28.4,81,30.04,10.0,East,3.5,-,N/A,,Clear,80,2012-10-31 14:35:00
9:55 AM,35.6,28.4,75,30.04,10.0,ESE,4.6,-,N/A,,Clear,110,2012-10-31 14:55:00
10:15 AM,37.4,28.4,70,30.04,10.0,East,4.6,-,N/A,,Clear,100,2012-10-31 15:15:00
10:35 AM,39.2,30.2,70,30.04,10.0,ESE,4.6,-,N/A,,Clear,110,2012-10-31 15:35:00
10:55 AM,39.2,30.2,70,30.04,10.0,Calm,Calm,-,N/A,,Clear,0,2012-10-31 15:55:00
11:15 AM,42.8,28.4,57,30.04,10.0,ESE,4.6,-,N/A,,Clear,120,2012-10-31 16:15:00
11:35 AM,44.6,30.2,57,30.03,10.0,SSW,4.6,-,N/A,,Clear,200,2012-10-31 16:35:00
11:55 AM,46.4,30.2,53,30.03,10.0,Calm,Calm,-,N/A,,Clear,0,2012-10-31 16:55:00
12:15 PM,48.2,32.0,54,30.02,10.0,SSE,3.5,-,N/A,,Clear,160,2012-10-31 17:15:00
12:35 PM,50.0,32.0,50,30.02,10.0,SSW,3.5,-,N/A,,Clear,210,2012-10-31 17:35:00
12:55 PM,51.8,33.8,50,30.01,10.0,Calm,Calm,-,N/A,,Clear,0,2012-10-31 17:55:00
1:15 PM,53.6,33.8,47,30.00,10.0,South,3.5,-,N/A,,Clear,170,2012-10-31 18:15:00
1:35 PM,55.4,33.8,44,30.00,10.0,Calm,Calm,-,N/A,,Clear,0,2012-10-31 18:35:00
1:55 PM,55.4,35.6,47,29.99,10.0,Calm,Calm,-,N/A,,Clear,0,2012-10-31 18:55:00
2:15 PM,57.2,35.6,44,29.99,10.0,Calm,Calm,-,N/A,,Clear,0,2012-10-31 19:15:00
2:35 PM,57.2,35.6,44,29.97,10.0,Calm,Calm,-,N/A,,Clear,0,2012-10-31 19:35:00
2:55 PM,57.2,35.6,44,29.97,10.0,Calm,Calm,-,N/A,,Clear,0,2012-10-31 19:55:00
3:15 PM,57.2,35.6,44,29.97,10.0,Calm,Calm,-,N/A,,Clear,0,2012-10-31 20:15:00
3:35 PM,59.0,35.6,42,29.96,10.0,Calm,Calm,-,N/A,,Clear,0,2012-10-31 20:35:00
3:55 PM,60.8,35.6,39,29.97,10.0,Calm,Calm,-,N/A,,Clear,0,2012-10-31 20:55:00
4:15 PM,60.8,37.4,42,29.97,10.0,Calm,Calm,-,N/A,,Clear,0,2012-10-31 21:15:00
4:35 PM,60.8,37.4,42,29.96,10.0,ENE,3.5,-,N/A,,Clear,70,2012-10-31 21:35:00
4:55 PM,60.8,37.4,42,29.97,8.0,Calm,Calm,-,N/A,,Clear,0,2012-10-31 21:55:00
5:15 PM,60.8,37.4,42,29.96,10.0,Calm,Calm,-,N/A,,Clear,0,2012-10-31 22:15:00
5:35 PM,60.8,37.4,42,29.96,10.0,ESE,3.5,-,N/A,,Clear,110,2012-10-31 22:35:00
5:55 PM,59.0,35.6,42,29.97,10.0,Calm,Calm,-,N/A,,Clear,0,2012-10-31 22:55:00
6:15 PM,57.2,37.4,48,29.97,10.0,Calm,Calm,-,N/A,,Clear,0,2012-10-31 23:15:00
6:35 PM,55.4,37.4,51,29.97,6.0,SE,3.5,-,N/A,,Clear,130,2012-10-31 23:35:00
6:55 PM,53.6,35.6,51,29.97,10.0,Calm,Calm,-,N/A,,Clear,0,2012-10-31 23:55:00
7:15 PM,51.8,35.6,54,29.97,10.0,Calm,Calm,-,N/A,,Clear,0,2012-11-01 00:15:00
7:35 PM,53.6,35.6,51,29.97,10.0,Calm,Calm,-,N/A,,Clear,0,2012-11-01 00:35:00
7:55 PM,51.8,35.6,54,29.97,10.0,Calm,Calm,-,N/A,,Clear,0,2012-11-01 00:55:00
8:15 PM,51.8,35.6,54,29.96,10.0,SE,3.5,-,N/A,,Clear,130,2012-11-01 01:15:00
8:35 PM,50.0,35.6,58,29.96,10.0,SE,3.5,-,N/A,,Clear,130,2012-11-01 01:35:00
8:55 PM,48.2,37.4,66,29.96,10.0,SSW,5.8,-,N/A,,Clear,210,2012-11-01 01:55:00
9:15 PM,48.2,35.6,62,29.96,10.0,Calm,Calm,-,N/A,,Clear,0,2012-11-01 02:15:00
9:35 PM,46.4,37.4,71,29.96,10.0,Calm,Calm,-,N/A,,Clear,0,2012-11-01 02:35:00
9:55 PM,46.4,35.6,66,29.96,10.0,Calm,Calm,-,N/A,,Clear,0,2012-11-01 02:55:00
10:15 PM,46.4,35.6,66,29.96,10.0,Calm,Calm,-,N/A,,Clear,0,2012-11-01 03:15:00
10:35 PM,46.4,35.6,66,29.96,10.0,Calm,Calm,-,N/A,,Clear,0,2012-11-01 03:35:00
10:55 PM,44.6,37.4,76,29.97,10.0,Calm,Calm,-,N/A,,Scattered Clouds,0,2012-11-01 03:55:00
11:15 PM,44.6,35.6,71,29.96,10.0,SSW,3.5,-,N/A,,Mostly Cloudy,200,2012-11-01 04:15:00
11:35 PM,44.6,35.6,71,29.96,10.0,Calm,Calm,-,N/A,,Mostly Cloudy,0,2012-11-01 04:35:00
11:55 PM,46.4,37.4,71,29.97,10.0,Calm,Calm,-,N/A,,Scattered Clouds,0,2012-11-01 04:55:00